When you browse on this site, cookies collect data to enhance your experience and personalize the content and advertising you see.
Visit our Privacy Policy to learn more. By continuing to use the site, you agree to this use of cookies and data.
  • In United Kingdom
  • List of Countries
  • For 7 days
  • Water Temperature
  • Weather Map
  • Weather Widgets
  • user-avatar
    Login

    Hourly Weather Jacksonville

    Today, 14 November, Thursday

    Time Temperature Precipitation Wind Pressure Humidity
    00:00 +14°C° 0 mm 3 mps 766 mmHg 80%
    01:00 +13°C° 0 mm 3 mps 765 mmHg 82%
    02:00 +13°C° 0 mm 3 mps 765 mmHg 81%
    03:00 +12°C° 0 mm 3 mps 765 mmHg 81%
    04:00 +11°C° 0 mm 3 mps 765 mmHg 81%
    05:00 +11°C° 0 mm 3 mps 765 mmHg 82%
    06:00 +11°C° 0 mm 3 mps 765 mmHg 82%
    07:00 +12°C° 0 mm 2 mps 766 mmHg 83%
    08:00 +13°C° 0 mm 3 mps 766 mmHg 81%
    09:00 +14°C° 0 mm 3 mps 766 mmHg 79%
    10:00 +16°C° 0 mm 3 mps 766 mmHg 76%
    11:00 +19°C° 0 mm 3 mps 766 mmHg 74%
    12:00 +21°C° 0 mm 3 mps 765 mmHg 72%
    13:00 +24°C° 0 mm 3 mps 765 mmHg 70%
    14:00 +22°C° 0 mm 3 mps 764 mmHg 72%
    15:00 +22°C° 0 mm 3 mps 764 mmHg 74%
    16:00 +22°C° 0 mm 3 mps 763 mmHg 75%
    17:00 +21°C° 0 mm 3 mps 763 mmHg 80%
    18:00 +21°C° 0 mm 3 mps 763 mmHg 84%
    19:00 +20°C° 0 mm 3 mps 764 mmHg 88%
    20:00 +20°C° 0.2 mm 3 mps 763 mmHg 90%
    21:00 +20°C° 0.2 mm 2 mps 763 mmHg 91%
    22:00 +20°C° 0.2 mm 2 mps 763 mmHg 92%
    23:00 +21°C° 0.8 mm 2 mps 762 mmHg 93%

    Tomorrow, 15 November, Friday

    Time Temperature Precipitation Wind Pressure Humidity
    00:00 +21°C° 0.8 mm 3 mps 762 mmHg 93%
    01:00 +21°C° 0.8 mm 3 mps 761 mmHg 93%
    02:00 +21°C° 2.4 mm 3 mps 760 mmHg 94%
    03:00 +21°C° 2.4 mm 3 mps 760 mmHg 95%
    04:00 +21°C° 2.4 mm 2 mps 759 mmHg 96%
    05:00 +21°C° 1 mm 3 mps 759 mmHg 96%
    06:00 +21°C° 1 mm 3 mps 759 mmHg 96%
    07:00 +21°C° 1 mm 3 mps 760 mmHg 96%
    08:00 +20°C° 0.2 mm 3 mps 760 mmHg 94%
    09:00 +19°C° 0.2 mm 3 mps 760 mmHg 91%
    10:00 +18°C° 0.2 mm 2 mps 760 mmHg 88%
    11:00 +20°C° 0.1 mm 2 mps 759 mmHg 83%
    12:00 +21°C° 0.1 mm 2 mps 759 mmHg 78%
    13:00 +23°C° 0.1 mm 1 mps 759 mmHg 72%
    14:00 +22°C° 0 mm 1 mps 759 mmHg 74%
    15:00 +21°C° 0 mm 2 mps 758 mmHg 75%
    16:00 +20°C° 0 mm 2 mps 758 mmHg 77%
    17:00 +20°C° 0 mm 2 mps 758 mmHg 78%
    18:00 +19°C° 0 mm 2 mps 758 mmHg 79%
    19:00 +19°C° 0 mm 2 mps 759 mmHg 81%
    20:00 +18°C° 0 mm 2 mps 759 mmHg 81%
    21:00 +18°C° 0 mm 2 mps 758 mmHg 82%
    22:00 +18°C° 0 mm 2 mps 758 mmHg 83%
    23:00 +17°C° 0 mm 2 mps 758 mmHg 83%

    Day after tomorrow, 16 November, Saturday

    Time Temperature Precipitation Wind Pressure Humidity
    00:00 +17°C° 0 mm 2 mps 758 mmHg 84%
    01:00 +17°C° 0 mm 2 mps 758 mmHg 84%
    02:00 +16°C° 0.1 mm 3 mps 758 mmHg 85%
    03:00 +16°C° 0.1 mm 3 mps 758 mmHg 86%
    04:00 +16°C° 0.1 mm 3 mps 757 mmHg 87%
    05:00 +14°C° 0.1 mm 3 mps 758 mmHg 87%
    06:00 +14°C° 0.1 mm 3 mps 758 mmHg 87%
    07:00 +14°C° 0.1 mm 4 mps 758 mmHg 87%
    08:00 +14°C° 0 mm 4 mps 758 mmHg 85%
    09:00 +14°C° 0 mm 4 mps 759 mmHg 84%
    10:00 +14°C° 0 mm 4 mps 759 mmHg 82%
    11:00 +15°C° 0 mm 4 mps 759 mmHg 80%
    12:00 +15°C° 0 mm 4 mps 759 mmHg 78%
    13:00 +15°C° 0 mm 4 mps 759 mmHg 76%
    14:00 +15°C° 0 mm 4 mps 759 mmHg 74%
    15:00 +15°C° 0 mm 4 mps 759 mmHg 71%
    16:00 +15°C° 0 mm 4 mps 759 mmHg 69%
    17:00 +14°C° 0 mm 4 mps 760 mmHg 69%
    18:00 +13°C° 0 mm 4 mps 760 mmHg 70%
    19:00 +12°C° 0 mm 5 mps 761 mmHg 70%
    20:00 +12°C° 0 mm 4 mps 761 mmHg 70%
    21:00 +11°C° 0 mm 4 mps 761 mmHg 71%
    22:00 +11°C° 0 mm 4 mps 761 mmHg 71%
    23:00 +10°C° 0 mm 4 mps 761 mmHg 71%

    17 November, Sunday

    Time Temperature Precipitation Wind Pressure Humidity
    00:00 +10°C° 0 mm 4 mps 761 mmHg 71%
    01:00 +8°C° 0 mm 4 mps 761 mmHg 71%
    02:00 +8°C° 0 mm 4 mps 761 mmHg 71%
    03:00 +7°C° 0 mm 4 mps 761 mmHg 72%
    04:00 +7°C° 0 mm 4 mps 761 mmHg 72%
    05:00 +6°C° 0 mm 4 mps 761 mmHg 73%
    06:00 +7°C° 0 mm 3 mps 762 mmHg 74%
    07:00 +5°C° 0 mm 3 mps 762 mmHg 75%
    08:00 +8°C° 0 mm 3 mps 762 mmHg 70%
    09:00 +9°C° 0 mm 3 mps 762 mmHg 65%
    10:00 +10°C° 0 mm 3 mps 762 mmHg 60%
    11:00 +13°C° 0 mm 2 mps 762 mmHg 56%
    12:00 +15°C° 0 mm 2 mps 761 mmHg 52%
    13:00 +17°C° 0 mm 2 mps 761 mmHg 48%
    14:00 +17°C° 0 mm 2 mps 760 mmHg 49%
    15:00 +17°C° 0 mm 2 mps 760 mmHg 50%
    16:00 +18°C° 0 mm 2 mps 760 mmHg 51%
    17:00 +16°C° 0 mm 2 mps 760 mmHg 57%
    18:00 +15°C° 0 mm 2 mps 760 mmHg 62%
    19:00 +14°C° 0 mm 1 mps 760 mmHg 67%
    20:00 +13°C° 0 mm 1 mps 761 mmHg 68%
    21:00 +13°C° 0 mm 2 mps 761 mmHg 69%
    22:00 +13°C° 0 mm 2 mps 761 mmHg 70%
    23:00 +12°C° 0 mm 2 mps 761 mmHg 70%

    18 November, Monday

    Time Temperature Precipitation Wind Pressure Humidity
    00:00 +12°C° 0 mm 2 mps 761 mmHg 71%
    01:00 +12°C° 0 mm 2 mps 760 mmHg 72%
    02:00 +10°C° 0 mm 2 mps 760 mmHg 73%
    03:00 +11°C° 0 mm 1 mps 760 mmHg 74%
    04:00 +11°C° 0 mm 1 mps 760 mmHg 75%
    05:00 +11°C° 0 mm 1 mps 760 mmHg 75%
    06:00 +11°C° 0 mm 1 mps 761 mmHg 76%
    07:00 +11°C° 0 mm 1 mps 761 mmHg 76%
    08:00 +13°C° 0 mm 1 mps 761 mmHg 71%
    09:00 +15°C° 0 mm 1 mps 761 mmHg 67%
    10:00 +18°C° 0 mm 1 mps 761 mmHg 62%
    11:00 +19°C° 0 mm 1 mps 761 mmHg 60%
    12:00 +20°C° 0 mm 1 mps 760 mmHg 57%
    13:00 +21°C° 0 mm 1 mps 760 mmHg 55%
    14:00 +20°C° 0 mm 1 mps 759 mmHg 57%
    15:00 +19°C° 0 mm 2 mps 759 mmHg 59%
    16:00 +19°C° 0 mm 2 mps 759 mmHg 60%
    17:00 +18°C° 0 mm 2 mps 759 mmHg 66%
    18:00 +17°C° 0 mm 2 mps 759 mmHg 72%
    19:00 +16°C° 0 mm 2 mps 759 mmHg 79%
    20:00 +16°C° 0 mm 2 mps 759 mmHg 81%
    21:00 +15°C° 0 mm 1 mps 759 mmHg 83%
    22:00 +15°C° 0 mm 1 mps 760 mmHg 85%
    23:00 +15°C° 0 mm 1 mps 759 mmHg 86%

    19 November, Tuesday

    Time Temperature Precipitation Wind Pressure Humidity
    00:00 +15°C° 0 mm 1 mps 759 mmHg 87%
    01:00 +15°C° 0 mm 1 mps 759 mmHg 88%
    02:00 +15°C° 0 mm 2 mps 759 mmHg 87%
    03:00 +15°C° 0 mm 2 mps 758 mmHg 86%
    04:00 +15°C° 0 mm 2 mps 758 mmHg 85%
    05:00 +15°C° 0.1 mm 2 mps 758 mmHg 86%
    06:00 +15°C° 0.1 mm 2 mps 759 mmHg 87%
    07:00 +15°C° 0.1 mm 2 mps 759 mmHg 88%
    08:00 +15°C° 0.1 mm 2 mps 759 mmHg 85%
    09:00 +16°C° 0.1 mm 2 mps 759 mmHg 82%
    10:00 +17°C° 0.1 mm 3 mps 760 mmHg 79%
    11:00 +18°C° 0 mm 3 mps 759 mmHg 72%
    12:00 +20°C° 0 mm 3 mps 759 mmHg 65%
    13:00 +21°C° 0 mm 2 mps 758 mmHg 57%
    14:00 +21°C° 0 mm 2 mps 758 mmHg 58%
    15:00 +21°C° 0 mm 2 mps 758 mmHg 59%
    16:00 +20°C° 0 mm 2 mps 758 mmHg 60%
    17:00 +19°C° 0 mm 2 mps 759 mmHg 63%
    18:00 +18°C° 0 mm 2 mps 759 mmHg 66%
    19:00 +17°C° 0 mm 2 mps 759 mmHg 69%
    20:00 +16°C° 0 mm 2 mps 760 mmHg 69%
    21:00 +16°C° 0 mm 2 mps 760 mmHg 69%
    22:00 +15°C° 0 mm 1 mps 760 mmHg 69%
    23:00 +15°C° 0 mm 1 mps 760 mmHg 68%
    Show more